Flag for U.S.A. Weather past 2 weeks in Atascadero, California, U.S.A.

Now
67 °F

Sunny.


Feels Like: 67 °F
Forecast: 52 / 86 °F
Wind: No wind

Location: Paso Robles Municipal Airport

Current Time: Aug 27, 2014 at 10:46:39 AM

Latest Report: Aug 27, 2014 at 9:53 AM


Visibility: 10 mi

Pressure: 30.06 "Hg

Humidity: 55%

Dew point: 50 °F

Location of AtascaderoLocation

Historic Weather in Atascadero — Graph

°F

Atascadero temperature yesterday

Maximum temperature yesterday: 88 °F (at 2:53 PM)
Minimum temperature yesterday: 49 °F (at 5:53 AM)
Average temperature yesterday: 67 °F

Past Weeks' High & Low Weather Summary

 TemperatureHumidityPressure
High100 °F (Aug 17, 2:53 PM)93% (Aug 18, 6:53 AM)30.06 "Hg (Aug 18, 6:53 AM)
Low49 °F (Aug 26, 5:53 AM)7% (Aug 16, 2:53 PM)29.74 "Hg (Aug 18, 4:53 PM)
Average69 °F57%29.91 "Hg
* Reported Aug 12 8:53 AM — Aug 27 8:53 AM, Atascadero, Weather by CustomWeather, © 2014

Note: Actual official high and low records may vary slightly from our data, if they occured in-between our weather recording intervals... More about our weather records

Advertising

Atascadero weather history for previous 24 hours

 ConditionsComfort  
Time TempWeatherWind HumidityBarometerVisibility
8:53 AM
Aug 27
61 °FSunny.No wind65%30.06 "Hg10 mi
7:53 AM57 °FSunny.No wind69%30.06 "Hg10 mi
6:53 AM51 °FClear.No wind74%30.06 "Hg10 mi
5:53 AM53 °FClear.No wind77%30.03 "Hg10 mi
4:53 AM53 °FClear.3 mph77%30.01 "Hg10 mi
3:53 AM54 °FClear.No wind74%30.01 "Hg10 mi
2:53 AM56 °FClear.3 mph75%30.01 "Hg10 mi
1:53 AM58 °FClear.No wind75%30.01 "Hg10 mi
12:53 AM59 °FClear.No wind67%30.00 "Hg10 mi
11:53 PM
Aug 26
60 °FClear.5 mph65%30.00 "Hg10 mi
10:53 PM64 °FClear.6 mph54%29.99 "Hg10 mi
9:53 PM66 °FClear.7 mph54%29.98 "Hg10 mi
8:53 PM68 °FClear.7 mph49%29.97 "Hg10 mi
7:53 PM72 °FSunny.10 mph40%29.94 "Hg10 mi
6:53 PM78 °FSunny.14 mph33%29.91 "Hg10 mi
5:53 PM82 °FSunny.16 mph28%29.91 "Hg10 mi
4:53 PM84 °FSunny.17 mph24%29.90 "Hg10 mi
3:53 PM86 °FSunny.16 mph21%29.90 "Hg10 mi
2:53 PM88 °FSunny.13 mph24%29.91 "Hg10 mi
1:53 PM85 °FSunny.8 mph26%29.93 "Hg10 mi
12:53 PM81 °FSunny.5 mph33%29.95 "Hg10 mi
11:53 AM75 °FSunny.No wind40%29.97 "Hg10 mi
10:53 AM69 °FSunny.3 mph53%29.99 "Hg10 mi
Weather by CustomWeather, © 2014

See weather overviewHow to use our weather pages